Weather History for Fryeburg, ME

Change the Weather History Date:

Friday, January 4, 2013

  Actual Average Record
Temperature  
Mean Temperature 15 °F -  
Max Temperature 34 °F 29 °F 50 °F (1998)
Min Temperature -4 °F 10 °F -26 °F (2014)
Degree Days  
Heating Degree Days 50    
Moisture  
Dew Point 13 °F    
Average Humidity 71    
Maximum Humidity 88    
Minimum Humidity 52    
Precipitation  
Precipitation 0.00 in - - ()
Sea Level Pressure  
Sea Level Pressure 29.79 in    
Wind  
Wind Speed 3 mph (SW)    
Max Wind Speed 12 mph    
Max Gust Speed 23 mph    
Visibility 10 miles    
Events Rain    
Averages and records for this station are not official NWS values.
T = Trace of Precipitation, MM = Missing Value Source: NWS Daily Summary

Daily Weather History Graph

Daily Weather History Graph

Search for Another Location

Airport:

Trip Planner

Search our weather history database for the weather conditions in past years. The results will help you decide how hot, cold, wet, or windy it might be!

Date:

Astronomy

Jan. 04, 2013 Rise Set
Actual Time 7:18 AM EST 4:19 PM EST
Civil Twilight 6:45 AM EST 4:52 PM EST
Nautical Twilight 6:09 AM EST 5:28 PM EST
Astronomical Twilight 5:34 AM EST 6:03 PM EST
Moon No Moon Rise 10:43 AM EST (1/4)
Length of Visible Light 10h 06m
Length of Day
9h 01m
Waning Gibbous, 55% of the Moon is Illuminated
Jan 4
Waning Gibbous
Jan 4
Last Quarter
Jan 11
New
Jan 18
First Quarter
Jan 26
Full

Hourly Weather History & Observations

Time (EST) Temp. Windchill Dew Point Humidity Pressure Visibility Wind Dir Wind Speed Gust Speed Precip Events Conditions
12:54 AM -2.0 °F - -6.0 °F 83% 29.91 in 10.0 mi Calm Calm - N/A   Clear
1:54 AM -0.9 °F - -4.0 °F 87% 29.91 in 10.0 mi Calm Calm - N/A   Clear
2:54 AM -2.9 °F - -7.1 °F 82% 29.89 in 10.0 mi Calm Calm - N/A   Clear
3:54 AM -4.0 °F - -8.0 °F 83% 29.88 in 10.0 mi Calm Calm - N/A   Clear
4:54 AM -0.9 °F - -5.1 °F 83% 29.88 in 10.0 mi Calm Calm - N/A   Overcast
5:54 AM 5.0 °F - 1.9 °F 87% 29.88 in 10.0 mi Calm Calm - N/A   Overcast
6:54 AM 10.0 °F - 7.0 °F 87% 29.88 in 10.0 mi Calm Calm - 0.00 in   Overcast
7:54 AM 10.9 °F - 8.1 °F 88% 29.86 in 10.0 mi Calm Calm - 0.00 in   Overcast
8:54 AM 26.1 °F 15.6 °F 18.0 °F 71% 29.83 in 10.0 mi WSW 11.5 mph 18.4 mph N/A   Overcast
9:54 AM 28.0 °F 20.8 °F 19.0 °F 69% 29.83 in 10.0 mi SW 6.9 mph - N/A   Clear
10:54 AM 30.0 °F 22.4 °F 19.9 °F 66% 29.80 in 10.0 mi SW 8.1 mph 19.6 mph N/A   Clear
11:54 AM 33.1 °F 26.9 °F 19.9 °F 59% 29.74 in 10.0 mi Variable 6.9 mph - N/A   Mostly Cloudy
12:54 PM 32.0 °F 25.6 °F 19.0 °F 59% 29.72 in 10.0 mi Variable 6.9 mph 20.7 mph N/A   Clear
1:54 PM 34.0 °F 25.5 °F 18.0 °F 52% 29.71 in 10.0 mi SW 11.5 mph 23.0 mph N/A   Clear
2:54 PM 33.1 °F 24.9 °F 18.0 °F 54% 29.72 in 10.0 mi WSW 10.4 mph 21.9 mph N/A   Overcast
3:54 PM 33.1 °F 24.9 °F 19.0 °F 56% 29.72 in 10.0 mi SW 10.4 mph 19.6 mph N/A   Clear
4:54 PM 32.0 °F 26.4 °F 19.0 °F 59% 29.73 in 10.0 mi Variable 5.8 mph - N/A   Scattered Clouds
5:54 PM 32.0 °F 27.5 °F 21.0 °F 64% 29.73 in 10.0 mi WSW 4.6 mph - N/A   Overcast
6:54 PM 33.1 °F 27.7 °F 21.9 °F 64% 29.73 in 10.0 mi Variable 5.8 mph - N/A   Overcast
7:54 PM 33.1 °F 28.7 °F 21.9 °F 64% 29.73 in 10.0 mi SSW 4.6 mph - 0.00 in   Overcast
8:54 PM 33.1 °F 28.7 °F 21.9 °F 64% 29.73 in 10.0 mi Variable 4.6 mph - N/A   Overcast
9:54 PM 33.1 °F 30.0 °F 23.0 °F 66% 29.73 in 10.0 mi SW 3.5 mph - N/A   Overcast
10:54 PM 32.0 °F 26.4 °F 24.1 °F 73% 29.74 in 10.0 mi WSW 5.8 mph - 0.00 in Rain Light Rain
11:54 PM 32.0 °F 27.5 °F 24.1 °F 73% 29.73 in 10.0 mi SW 4.6 mph - 0.00 in   Overcast